Location: New Greens
(51.7702°N, 0.3379°W)
Time: 00:41:46
(UTC+00:00)

Envisat - Pass Details

Date: 31 January 2019
Orbit: 764 x 766 km, 98.2° (Epoch: 19 February)

Event Time Altitude Azimuth Distance (km) Brightness Sun altitude
Rises 19:34:35 0° 197° (SSW) 3,222 6.4 -25.8°
Reaches altitude 10° 19:37:12 10° 208° (SSW) 2,301 5.7 -26.2°
Maximum altitude 19:41:32 28° 267° (W) 1,417 5.0 -26.9°
Drops below altitude 10° 19:45:53 10° 326° (NW) 2,315 6.0 -27.5°
Sets 19:48:32 0° 338° (NNW) 3,246 6.6 -27.9°
